Location: Northcutt
(34.7304°N, 84.4305°W)
Time: 11:04:37
(UTC+00:00)

A-11 Canister half - Pass Details

Date: 12 October 2022
Orbit: 1524 x 1685 km, 47.3° (Epoch: 30 November)

Event Time Altitude Azimuth Distance (km) Brightness Sun altitude
Rises 22:05:24 0° 296° (WNW) 4,673 12.3 11.4°
Reaches altitude 10° 22:08:42 10° 304° (WNW) 3,693 11.7 10.8°
Maximum altitude 22:17:24 42° 13° (NNE) 2,085 9.6 9.1°
Drops below altitude 10° 22:26:15 10° 82° (E) 3,761 10.4 7.3°
Sets 22:29:38 0° 89° (E) 4,767 10.9 6.7°
